Wind_Speed
48 47 46 45 45 44 44 43 42 40 39 37 36 34 32 30 29 28 26 26 25 25 24 24 23 23 22 21 21 21 21 22 22 22 22 22 22 22 22 22 22 21 20 20 20 20 19 18 18 17 17 17 17 17 17 17 16 15 15 13 11 9 7 6 4 3 2 2 3 3 2 2 3 3 4 4 5 5 5 6 6 7 7 7 6 6 6 6
47 47 46 45 45 44 44 43 42 41 40 38 37 35 33 31 29 28 27 26 25 25 25 24 24 23 23 22 22 21 22 22 22 22 22 22 23 22 22 22 21 21 20 20 20 19 19 18 18 17 17 17 17 18 18 18 17 16 15 14 12 10 8 7 5 4 4 3 3 4 3 3 3 3 4 4 5 5 6 6 5 6 6 6 6 6 7 6
47 47 46 45 45 44 44 43 42 41 40 39 38 36 34 32 30 28 27 26 26 26 25 25 24 24 23 23 22 22 22 22 23 23 22 23 22 22 22 21 21 20 20 20 19 19 19 18 18 18 18 18 18 18 18 18 18 17 16 14 12 10 9 7 6 6 5 4 4 4 4 4 3 4 4 5 5 6 6 6 5 5 5 6 6 7 7 7
48 47 46 46 45 44 44 43 43 41 41 39 38 36 34 32 30 29 28 27 27 27 26 26 25 24 24 23 23 23 22 23 23 23 23 23 22 21 21 21 20 20 20 20 19 19 19 19 19 18 18 18 18 18 18 19 18 18 16 15 12 11 9 8 7 7 7 6 5 5 6 5 4 4 4 5 5 6 6 6 6 5 5 5 6 7 7 7
49 48 48 47 46 45 44 43 43 42 41 39 38 36 34 33 31 30 29 28 28 27 27 26 25 25 24 24 23 23 23 23 23 23 23 23 22 21 21 20 20 20 20 20 20 20 20 19 19 19 19 19 19 19 19 19 18 18 17 15 13 12 10 9 9 9 8 7 7 7 7 6 5 4 4 5 5 5 6 6 6 6 5 5 5 6 7 8
51 50 49 49 48 46 45 44 43 42 41 40 38 37 35 33 32 31 30 29 29 28 27 27 26 26 25 24 24 23 24 24 23 23 23 23 22 22 21 21 21 21 21 21 21 21 20 20 20 20 19 19 19 19 19 19 19 18 16 15 14 13 12 11 10 10 9 9 8 8 8 8 7 5 4 4 5 5 5 5 6 6 6 5 5 5 7 8
52 51 51 50 49 48 47 46 45 44 42 41 40 38 36 35 33 32 31 30 29 28 28 28 27 26 25 25 24 24 24 24 24 23 23 23 23 22 21 21 21 21 22 22 22 21 21 21 20 20 20 20 20 20 20 19 19 18 17 15 14 14 12 12 11 10 10 10 10 9 9 9 8 6 4 4 5 5 5 5 5 6 6 6 6 5 6 7
52 52 51 50 50 49 48 47 46 45 44 42 41 39 38 36 35 33 32 31 30 30 29 29 28 27 26 25 25 24 25 24 24 24 24 24 23 23 22 22 22 22 22 22 22 22 22 21 21 21 21 20 20 20 20 20 19 18 17 16 15 14 13 13 12 12 11 11 10 10 10 10 9 7 4 5 5 5 5 6 6 6 7 7 7 7 6 7
53 52 52 52 51 50 49 48 47 46 45 44 42 41 39 37 36 34 33 32 32 31 30 30 29 28 27 26 25 25 25 25 25 25 25 25 24 23 23 23 23 23 23 23 23 23 23 22 22 21 21 21 21 21 21 20 19 19 18 17 16 15 14 14 13 13 12 11 11 10 11 11 11 8 5 5 6 6 6 6 6 7 7 8 8 8 8 8
53 53 53 52 52 51 50 49 48 47 46 45 43 42 40 39 37 36 35 34 33 32 32 31 30 29 28 27 26 26 26 26 26 26 26 25 25 24 24 24 24 24 24 24 24 24 23 23 22 22 22 22 22 21 21 21 20 19 18 18 17 16 15 14 14 13 12 11 11 10 10 11 11 8 6 6 6 6 7 7 7 7 8 8 9 9 10 10
53 53 53 53 53 52 51 50 49 48 47 46 45 43 42 40 39 37 36 35 34 33 32 32 31 30 30 28 28 27 26 27 27 27 27 26 26 25 25 25 25 25 25 25 25 25 24 24 23 23 23 23 23 22 22 21 21 20 19 18 17 17 16 15 14 13 12 11 11 11 10 11 12 9 6 7 7 7 7 7 8 8 9 9 10 10 11 12
53 54 54 54 54 53 52 51 50 49 48 47 46 44 43 42 41 39 38 37 36 35 34 33 32 31 31 30 29 28 27 28 28 28 28 27 27 26 26 26 26 26 26 26 26 25 25 25 24 24 24 24 24 23 23 22 21 20 19 18 18 17 16 15 13 12 11 11 11 10 10 12 12 9 7 7 7 7 8 8 9 9 10 10 11 11 12 13
53 54 55 54 54 54 53 52 51 50 50 49 48 46 45 43 42 41 40 39 37 36 35 34 33 33 32 32 31 29 28 28 28 29 29 28 28 27 27 26 26 26 26 26 26 26 25 25 25 25 25 25 25 24 23 23 22 21 20 19 18 17 16 15 13 12 11 11 11 10 10 13 12 9 8 7 7 8 8 9 10 10 11 11 12 12 13 13
52 54 55 55 54 54 54 53 53 52 51 50 50 48 47 45 44 43 42 40 39 38 36 35 35 34 34 33 32 31 30 30 29 30 30 30 30 29 28 28 27 27 27 26 26 26 26 26 26 26 26 26 25 25 24 24 23 22 21 19 18 17 16 15 13 12 12 11 11 10 10 13 11 8 8 7 7 8 9 9 10 11 12 12 12 13 14 14
50 52 54 55 55 55 54 54 54 53 52 52 51 50 49 48 47 45 44 43 41 39 38 37 36 35 35 35 34 33 32 31 31 31 32 31 31 31 30 29 29 28 28 27 27 27 27 27 27 27 27 26 26 25 25 24 24 23 21 20 19 18 17 16 14 14 13 13 12 10 9 12 12 9 9 8 8 9 10 11 12 12 13 13 13 14 14 15
47 49 52 54 55 55 55 55 54 54 53 53 52 52 51 50 49 48 46 45 43 42 40 39 38 37 36 36 36 35 34 33 32 33 33 33 33 33 32 31 30 30 29 28 28 28 28 28 28 28 28 28 27 26 26 25 25 24 22 20 19 18 18 17 16 16 16 14 14 12 9 12 14 12 11 10 10 10 11 13 13 13 14 14 14 14 15 15
44 47 49 52 53 54 55 55 54 54 54 54 53 53 53 52 51 50 49 48 46 44 42 41 40 39 38 38 37 37 36 35 34 34 35 35 35 35 34 33 32 31 31 30 29 29 29 29 29 29 29 28 28 27 27 27 26 25 22 21 20 20 19 19 19 19 18 16 15 14 11 12 16 15 13 13 12 11 12 14 14 15 15 15 15 15 15 16
42 44 46 49 51 53 54 54 54 54 54 54 54 53 53 53 52 52 51 50 48 46 45 44 42 41 40 39 39 38 37 37 36 35 36 36 37 36 36 35 34 33 32 31 31 30 29 29 29 30 30 29 29 30 30 28 27 25 23 22 22 22 21 21 22 20 19 18 17 16 13 14 17 16 16 16 14 13 14 15 16 16 17 17 17 17 17 17
42 41 43 45 48 50 52 53 53 53 54 54 54 54 54 53 53 53 52 51 50 49 48 46 44 43 42 40 40 40 39 38 38 37 37 37 38 38 38 37 36 35 34 33 32 31 31 30 31 30 30 30 32 33 31 29 27 25 25 25 24 24 23 24 24 23 22 21 20 19 17 15 17 18 19 19 16 14 15 17 17 18 19 19 19 19 18 18
43 41 41 42 44 47 49 50 52 52 53 53 53 53 54 54 54 54 53 53 52 51 49 48 46 45 44 42 42 41 41 40 40 39 39 38 39 39 40 39 38 37 36 35 34 33 32 32 32 31 32 34 35 33 31 29 28 28 28 27 26 25 25 26 26 25 25 24 22 22 21 17 17 20 22 21 18 15 16 17 18 20 21 21 21 21 20 20
45 43 42 41 41 43 45 47 49 50 52 52 53 53 53 53 53 53 53 53 53 52 51 50 48 47 46 45 44 43 42 42 41 41 40 40 40 40 41 40 40 39 38 37 36 35 35 34 33 33 35 36 35 33 31 31 30 30 29 29 28 27 27 28 28 27 28 27 24 24 24 19 18 21 21 22 20 17 17 18 19 21 22 22 23 22 22 21
47 45 43 42 41 41 42 43 45 47 49 51 51 52 52 53 53 53 53 53 53 53 52 51 50 49 48 46 45 44 43 43 43 43 42 41 41 41 42 42 41 41 40 39 38 38 37 36 35 35 36 37 36 34 33 33 32 31 31 30 30 29 29 30 30 29 29 29 26 26 27 23 20 21 20 21 22 19 18 19 20 21 22 24 24 23 22 23
51 49 46 44 42 42 41 41 42 44 46 48 49 50 51 51 52 52 53 53 53 53 53 52 52 51 49 48 47 46 45 45 44 44 44 43 43 43 43 43 43 43 42 41 41 40 39 38 37 37 38 38 38 36 35 34 33 33 33 32 32 31 32 32 32 31 31 31 29 28 30 27 22 21 20 20 22 20 20 20 21 22 23 24 24 23 23 24
52 51 49 47 46 44 43 42 42 42 43 45 47 48 49 50 51 52 52 53 54 54 53 53 53 52 51 50 49 48 47 46 46 46 45 45 45 45 44 44 44 44 44 43 43 42 42 41 40 39 39 39 39 37 36 36 35 35 35 34 34 34 35 34 33 33 33 32 31 31 34 31 24 23 20 20 21 20 21 22 22 24 25 25 24 24 25 25
51 52 51 50 49 48 47 46 44 43 43 43 45 46 47 49 50 51 52 53 55 55 54 54 53 53 52 51 50 49 49 48 47 47 47 47 47 47 46 45 45 45 45 45 45 44 43 42 42 41 41 40 40 39 38 38 37 37 37 37 37 37 37 36 35 35 35 34 33 33 37 35 27 23 21 20 22 22 23 23 23 25 27 26 25 25 26 26
50 50 51 51 51 51 50 49 48 47 45 44 44 44 45 46 48 50 51 53 55 55 54 55 54 53 53 52 51 50 50 49 48 48 48 48 48 48 48 47 46 46 46 46 47 46 45 44 43 43 42 42 42 41 40 40 40 40 40 40 40 39 38 38 37 37 37 36 35 35 39 39 32 25 21 21 23 23 24 25 25 28 28 27 26 26 27 28
50 49 50 51 51 52 53 52 51 49 48 47 46 45 46 45 46 48 48 51 55 53 52 54 54 53 52 51 51 50 50 48 47 48 48 48 49 49 49 49 47 47 47 47 47 47 45 45 45 44 43 43 43 43 42 42 43 43 42 42 42 41 40 40 39 39 39 39 38 36 38 42 39 29 23 24 25 25 26 27 28 30 29 28 27 28 29 30
45 47 50 51 51 51 52 53 53 52 51 50 48 48 47 46 47 47 47 51 53 50 50 52 53 52 52 51 51 50 50 48 46 47 47 48 48 49 49 49 48 48 48 48 48 47 47 47 47 46 46 45 45 45 45 45 46 45 44 44 43 43 42 42 41 41 41 40 40 38 38 43 42 34 28 27 27 27 27 28 30 30 29 29 29 30 31 32
39 40 44 49 52 52 51 50 51 53 54 53 51 51 50 49 49 48 49 52 52 50 49 50 51 52 52 52 51 51 51 50 48 47 47 48 48 49 49 49 49 50 50 49 49 48 48 48 49 49 48 47 46 47 47 47 48 47 46 46 45 45 44 44 44 43 43 42 42 41 40 42 43 36 32 31 29 28 28 29 29 30 31 31 31 32 33 35
42 38 38 41 46 50 51 51 50 51 52 54 55 54 52 52 52 52 54 54 52 51 50 49 50 51 51 51 51 51 51 51 50 48 48 48 48 48 49 49 50 50 51 51 50 49 49 49 50 50 49 49 48 49 49 49 49 48 48 48 47 47 47 46 46 44 45 45 44 44 42 43 42 34 30 30 30 29 28 28 30 32 34 33 33 34 35 37
47 43 39 38 39 42 47 51 52 52 51 52 54 55 56 56 55 56 57 53 51 53 52 50 49 49 49 49 49 49 49 50 50 48 48 48 48 48 48 48 49 49 50 50 50 50 50 50 50 49 49 49 49 50 50 50 50 50 50 50 50 49 48 48 47 47 49 48 46 46 44 45 43 34 29 31 33 34 33 31 32 33 35 36 37 38 37 39
54 51 47 43 41 41 41 43 47 51 52 52 52 53 56 59 61 61 57 52 53 56 54 51 49 48 48 48 47 47 47 49 49 48 47 47 48 48 48 48 48 48 49 49 49 49 50 50 50 49 49 50 50 51 52 52 52 52 52 51 50 49 49 50 50 50 52 50 48 48 48 48 45 38 36 37 38 39 38 35 34 34 36 39 41 41 40 41
58 58 56 53 48 45 42 41 42 45 48 50 52 53 55 60 62 59 56 55 57 58 55 52 51 50 50 49 48 47 47 48 47 47 46 46 47 48 48 49 49 50 51 50 50 50 51 51 52 51 51 51 51 52 52 52 51 51 50 50 50 50 52 54 54 54 53 52 50 50 50 51 47 41 41 40 40 41 40 38 38 38 39 41 42 44 43 44
57 57 57 58 56 52 47 44 43 42 41 44 47 49 53 58 56 52 52 54 56 57 56 55 54 53 52 50 49 47 46 46 46 45 45 45 46 46 46 47 48 49 49 50 51 51 52 53 53 52 52 51 51 50 50 49 50 50 51 51 53 54 55 57 57 56 54 53 52 52 53 53 48 44 44 43 43 43 42 41 41 42 43 42 43 45 46 47
56 55 54 54 56 56 52 48 46 44 43 44 47 50 51 51 48 47 48 49 49 51 53 54 53 52 52 51 50 49 48 47 46 46 47 46 45 44 44 45 45 46 46 48 50 50 52 53 52 51 51 50 49 49 48 49 50 52 53 54 56 56 56 56 56 56 55 55 55 55 56 55 51 48 47 47 45 45 45 44 44 44 44 44 45 45 47 48
58 58 57 54 52 53 52 52 50 47 44 45 49 53 51 47 45 45 45 45 46 48 50 51 49 48 48 48 48 48 48 47 46 47 48 48 47 46 44 44 44 45 45 46 48 48 50 51 50 49 49 49 48 48 48 48 50 51 53 55 56 55 54 53 54 55 56 58 59 59 59 56 54 52 49 47 47 46 46 47 47 47 47 46 46 45 46 49
61 61 61 59 55 53 52 54 53 49 45 45 47 48 47 45 45 43 42 43 44 46 50 52 50 49 48 48 47 46 46 47 47 48 48 49 50 48 46 45 45 45 45 45 47 47 48 49 50 49 50 49 49 49 49 50 51 52 55 55 53 53 54 54 55 56 57 60 62 62 61 58 57 56 50 47 48 48 48 50 50 51 50 49 47 46 47 49
62 62 63 63 60 58 56 57 57 53 49 49 49 47 45 43 41 41 42 43 43 44 48 51 51 51 51 51 51 50 50 50 49 49 50 51 52 51 49 48 47 46 46 46 48 49 49 49 50 50 50 50 49 51 52 52 53 55 56 54 53 54 55 55 56 57 57 60 62 61 61 60 60 58 53 49 50 50 51 53 53 53 53 51 49 47 48 49
62 63 63 64 64 63 63 63 63 60 58 56 54 51 49 47 44 43 43 44 47 48 48 49 49 50 51 50 51 51 52 53 52 52 52 51 52 52 51 50 49 49 48 49 50 51 50 51 52 52 52 52 52 53 54 55 54 54 53 52 52 53 54 55 56 57 57 58 60 61 62 62 60 56 55 53 52 53 54 54 54 54 53 52 51 51 51 51
63 64 64 64 64 65 66 66 67 67 66 65 61 56 53 52 51 49 46 47 50 52 52 51 49 50 51 50 50 50 50 52 53 54 54 53 52 51 50 50 50 50 50 51 52 52 53 54 55 56 55 55 55 54 54 53 52 51 50 51 51 51 53 55 57 57 57 59 60 61 63 63 59 55 56 57 54 54 56 56 55 55 53 52 53 54 54 54
63 64 65 64 64 65 66 67 68 69 70 70 67 63 60 57 56 55 53 53 53 54 55 56 54 53 52 52 52 51 51 51 51 51 53 53 53 51 50 50 50 50 51 52 53 53 54 55 56 57 58 58 56 53 52 52 52 52 52 52 52 53 54 56 58 59 58 59 59 59 62 63 58 55 56 57 56 55 56 56 56 54 53 53 56 57 57 57
61 63 64 64 64 65 66 66 67 69 70 71 70 69 67 65 62 61 60 59 57 55 56 57 58 58 57 56 55 54 54 53 52 50 50 50 51 50 50 49 49 50 51 53 54 54 54 55 57 58 59 58 57 56 55 55 55 56 56 55 56 57 58 59 61 60 59 60 59 59 63 63 56 54 56 57 57 57 57 56 55 55 55 55 58 61 61 60
57 60 62 63 63 64 66 67 68 68 69 69 70 71 72 70 68 67 65 63 61 59 56 56 58 58 59 59 58 58 58 57 56 54 50 49 48 48 49 49 49 50 51 52 53 54 56 58 60 60 60 60 60 59 59 59 60 61 61 60 59 60 60 60 61 60 60 62 60 61 65 63 56 54 55 56 58 60 59 57 56 57 59 59 61 63 64 63
54 56 59 60 61 63 66 68 70 69 68 68 68 70 72 72 71 70 67 66 66 64 62 60 58 58 58 57 57 59 58 57 57 57 55 52 50 49 50 51 52 53 53 53 53 53 54 56 58 59 61 62 63 63 64 64 64 65 64 62 62 61 60 61 62 62 63 62 61 64 67 64 57 56 56 57 60 62 61 60 60 60 61 62 63 63 63 63
53 54 56 58 60 62 65 67 69 69 69 68 68 68 68 70 72 70 67 66 68 68 67 66 64 62 61 59 57 56 55 54 54 55 57 56 54 53 53 54 54 54 54 56 56 55 55 54 55 57 61 64 64 64 65 64 63 63 62 61 61 60 60 61 60 61 63 62 62 66 68 64 59 58 60 61 61 62 63 64 64 63 62 62 63 63 62 61
55 55 55 56 58 61 64 66 67 68 70 69 69 69 68 69 70 69 67 67 67 67 68 69 69 69 68 66 63 59 56 55 54 55 55 56 55 54 54 54 53 52 52 54 56 57 57 55 54 55 58 61 61 60 60 60 60 60 60 59 60 60 60 60 60 62 64 63 65 68 68 66 64 61 61 62 62 64 65 65 64 63 63 63 62 62 62 60
58 57 55 55 57 60 62 64 64 66 68 69 69 70 69 69 69 70 70 68 67 66 67 68 71 72 71 71 69 66 61 59 58 57 56 55 54 53 53 53 51 49 48 50 53 56 56 56 54 53 53 54 53 54 55 57 57 58 59 59 60 61 62 62 64 65 63 64 69 69 66 67 68 63 61 62 63 64 64 64 63 63 63 63 61 59 59 59
61 59 57 58 59 59 60 61 62 62 65 66 67 69 69 69 70 71 71 69 68 67 67 69 70 72 72 72 70 70 68 66 65 62 59 57 55 54 55 54 51 48 47 49 51 52 54 56 55 56 57 54 52 53 54 54 55 55 56 57 58 59 60 62 65 65 64 67 71 68 64 67 68 62 58 58 59 59 58 58 59 59 60 60 60 59 59 59
64 62 61 62 62 61 59 59 59 61 62 63 64 66 67 68 68 69 70 71 70 69 69 69 69 69 70 71 71 72 71 70 70 67 63 60 58 58 58 57 54 51 49 52 53 51 52 53 52 56 60 59 57 56 55 54 54 54 55 55 55 56 57 60 62 63 64 67 68 65 64 65 63 58 55 53 54 55 54 53 54 55 56 57 58 59 58 57
68 66 65 65 65 63 61 60 60 61 62 63 64 65 66 67 67 68 69 71 72 71 71 70 69 68 68 70 71 73 73 71 70 68 66 64 63 63 63 62 61 57 54 54 55 55 55 53 50 53 57 58 57 56 56 54 52 53 55 55 54 53 54 57 58 59 60 63 62 60 61 62 58 53 49 48 49 51 52 51 50 51 53 54 56 58 58 57
72 70 70 70 69 67 66 64 63 64 64 64 64 64 64 65 65 66 67 70 71 71 71 71 69 68 70 71 71 72 72 71 71 70 68 68 68 67 67 67 67 66 63 60 59 59 59 58 57 57 59 58 54 55 57 55 53 54 54 53 54 54 55 57 57 57 58 59 58 56 58 60 54 48 45 45 48 50 52 52 51 52 53 55 57 59 58 57
77 76 75 74 72 71 70 68 67 67 66 64 62 62 63 64 63 64 65 66 67 69 70 70 69 70 71 72 72 72 71 71 72 72 72 72 72 71 72 72 71 72 71 69 67 64 62 62 62 63 65 62 56 56 58 59 61 62 54 46 49 53 54 55 56 56 56 57 57 57 58 56 50 46 46 45 45 46 48 51 52 53 54 56 58 59 59 58
Wind_Direction
193 193 194 194 194 195 195 196 195 196 196 196 198 199 200 201 201 202 203 203 203 203 204 205 207 208 210 210 211 211 212 213 214 214 215 215 215 216 215 215 215 215 214 214 214 214 215 215 213 211 208 207 208 209 208 207 207 206 205 206 206 206 212 219 229 244 261 294 310 312 317 332 357 8 2 353 348 344 336 329 318 309 303 301 299 295 290 281
196 196 196 196 196 196 197 197 197 196 197 197 199 200 201 203 204 204 205 206 206 206 207 207 209 210 211 212 213 214 215 216 217 217 217 217 217 216 215 214 213 213 212 211 211 211 211 211 211 209 207 206 206 207 206 205 206 205 207 210 210 210 215 222 233 248 259 277 292 296 294 301 332 351 350 350 347 345 344 338 326 312 301 295 292 289 287 281
199 198 198 198 198 198 198 198 198 198 198 199 200 201 203 204 205 206 208 209 209 209 209 209 210 211 213 214 215 217 218 219 219 219 218 217 217 215 213 211 210 209 209 209 208 208 209 209 209 208 208 207 207 207 206 205 205 206 209 212 213 216 220 226 237 250 259 269 279 284 283 285 307 329 338 347 349 350 348 340 333 316 299 290 285 283 283 282
202 201 200 200 200 200 200 200 199 200 200 201 202 202 204 205 206 208 210 211 211 211 212 212 212 213 214 215 217 219 220 221 221 220 218 217 215 213 211 209 208 207 207 207 207 207 208 208 209 209 208 208 208 208 207 206 206 208 211 213 216 221 225 232 240 250 258 264 271 276 275 273 284 306 326 342 347 349 348 344 340 328 309 295 288 286 284 285
203 203 203 202 202 202 202 202 202 202 203 203 204 204 205 207 208 210 211 212 213 213 213 214 214 215 216 218 219 221 222 223 222 220 217 215 213 210 208 206 205 205 205 205 206 207 208 209 209 210 209 209 209 209 208 208 209 211 213 216 220 226 230 237 243 250 259 266 271 271 266 264 268 282 311 333 337 343 349 348 344 340 331 315 301 294 291 290
205 205 205 205 204 204 204 204 204 205 205 205 206 206 207 208 210 211 213 214 214 214 215 215 216 217 218 219 221 223 224 223 221 219 215 212 210 207 206 205 204 204 204 204 206 207 208 209 210 210 210 210 210 210 209 209 211 213 216 219 223 228 233 240 246 253 261 268 270 266 261 260 259 266 295 318 319 332 346 348 346 345 345 338 322 306 296 293
208 207 207 207 206 206 206 206 207 207 207 208 208 208 209 210 211 212 214 215 215 215 216 216 217 218 219 221 223 224 225 223 220 217 213 210 208 206 205 204 204 204 204 205 206 208 208 210 211 211 211 211 211 211 211 211 213 214 218 221 225 230 236 243 249 256 263 268 268 264 258 258 257 256 278 300 304 321 333 338 343 345 347 344 337 322 307 298
210 210 209 209 209 209 208 209 209 209 210 210 211 211 211 212 212 214 215 216 216 216 217 217 218 219 220 222 224 225 225 223 219 216 212 210 207 206 206 206 205 205 206 207 207 209 210 211 212 212 213 213 213 213 213 213 214 216 219 223 226 231 238 245 252 257 263 267 266 261 256 257 258 254 266 286 293 311 320 326 333 337 340 339 336 331 320 309
211 211 211 211 212 212 211 211 211 212 212 213 213 213 214 214 215 215 217 217 218 218 217 218 218 219 221 223 225 226 226 223 219 215 212 210 208 207 207 207 208 208 208 209 210 211 212 213 214 214 215 215 215 216 216 216 216 218 221 224 229 234 240 245 252 257 261 263 260 257 255 258 261 258 263 277 286 302 310 317 323 327 328 328 328 326 323 317
212 212 213 213 213 214 214 214 214 214 214 215 215 215 216 216 217 218 219 219 220 219 219 219 219 220 221 223 225 226 226 223 219 216 212 210 209 209 209 209 210 210 211 212 213 214 215 216 216 216 217 217 217 218 219 219 218 220 222 226 230 235 241 246 251 255 257 257 256 254 253 258 263 262 266 274 283 296 301 308 314 317 318 317 318 317 317 316
213 213 213 214 214 215 216 216 216 216 216 217 217 217 217 218 219 219 220 221 222 222 221 220 220 221 222 223 225 226 225 223 220 216 213 211 211 211 211 212 213 214 214 216 216 217 218 218 218 218 219 218 218 219 220 221 221 222 224 227 232 237 243 247 249 251 251 251 252 250 251 257 262 263 266 275 284 292 294 302 307 309 311 310 311 310 310 311
214 214 214 214 215 215 216 217 218 218 218 219 219 219 219 220 220 221 222 223 223 223 223 223 222 222 222 223 225 225 225 224 221 218 215 212 212 212 213 214 216 217 218 219 219 220 220 220 220 220 220 220 220 220 221 222 222 224 226 230 235 239 242 244 245 246 246 247 248 248 249 254 261 266 267 274 285 290 293 300 303 305 306 307 308 308 308 309
215 215 215 215 215 216 216 217 218 219 220 220 221 221 222 222 222 223 223 224 224 225 225 225 225 224 224 224 225 225 225 224 222 220 217 214 213 214 215 216 217 219 220 221 221 222 222 221 221 221 221 221 221 221 222 223 224 226 229 232 236 238 239 240 240 240 241 243 245 245 249 255 262 271 274 278 284 289 296 300 302 302 304 305 306 307 307 308
216 216 217 217 216 216 216 217 217 218 220 221 221 222 223 224 224 225 225 225 226 226 227 227 227 226 226 226 225 225 225 225 223 221 219 216 215 215 216 217 219 220 221 223 224 224 224 224 223 223 223 223 223 223 224 225 226 228 231 233 235 237 238 238 237 237 238 240 244 244 248 259 266 273 279 285 287 291 298 299 301 301 303 305 305 306 305 306
215 217 218 218 218 218 218 218 218 218 219 220 221 222 223 224 225 226 226 227 227 228 228 228 228 228 228 228 226 225 225 225 224 222 220 218 217 217 217 219 220 222 223 225 226 227 227 226 226 225 224 224 224 224 225 227 229 230 233 234 234 235 237 238 237 237 238 239 244 246 249 263 272 275 279 284 287 293 297 297 299 301 303 304 304 305 304 304
213 216 218 219 219 219 219 219 220 220 220 221 221 222 223 224 225 225 226 227 228 229 229 229 229 229 229 229 227 227 226 226 225 223 221 220 219 219 219 220 221 223 224 226 227 228 228 228 227 226 225 225 224 225 226 228 231 233 233 233 235 236 238 240 240 239 240 241 245 250 251 261 271 276 280 283 285 290 294 294 297 299 300 303 304 304 303 303
213 214 216 219 220 221 221 221 222 222 222 222 223 223 224 224 225 225 226 227 228 229 230 231 230 230 230 229 229 229 228 227 227 225 223 222 221 221 220 221 222 223 225 226 227 228 228 228 227 227 226 225 225 226 228 230 232 234 233 234 236 239 240 241 243 244 246 246 248 252 252 257 267 275 280 281 283 288 291 291 294 297 297 299 301 303 302 301
214 214 214 216 218 220 222 222 223 223 224 224 225 225 225 226 226 226 226 227 228 229 230 231 231 231 231 230 230 231 230 229 228 227 226 224 223 222 222 223 224 224 225 226 227 228 228 229 228 227 227 226 227 229 230 231 232 235 235 235 237 240 242 244 246 249 252 253 254 256 256 257 266 275 277 277 281 287 289 290 294 295 295 297 299 300 300 301
216 215 215 215 216 218 220 222 223 224 225 225 226 227 227 227 227 227 227 228 229 230 231 231 231 232 232 232 233 233 232 231 230 229 228 227 225 225 224 224 225 226 227 227 227 228 229 229 229 229 228 228 229 230 231 232 234 236 236 237 239 241 245 248 250 253 256 257 259 261 259 258 267 274 275 276 280 284 286 288 292 293 294 296 297 298 299 300
218 217 217 217 216 217 218 220 222 223 225 225 226 227 228 229 229 229 229 229 230 231 231 232 232 232 232 232 233 234 233 232 232 231 230 229 228 227 226 226 226 227 228 228 228 229 229 230 230 229 229 231 232 232 233 234 235 236 238 239 241 244 247 251 254 257 259 260 261 263 262 260 265 271 274 278 281 282 283 285 288 289 292 294 295 296 298 300
219 218 218 219 219 218 218 219 220 222 223 225 226 227 228 229 230 230 230 231 231 231 232 232 232 233 233 233 234 234 235 234 233 233 232 232 231 230 229 228 228 228 229 230 230 230 230 231 231 231 232 234 235 235 236 236 237 239 240 242 243 246 249 253 257 259 261 262 262 264 265 263 263 266 273 280 283 283 283 284 285 287 291 293 293 295 298 300
220 220 219 219 219 220 220 220 220 220 222 223 225 226 227 228 229 230 231 231 232 232 233 233 233 233 233 233 234 234 236 236 235 235 234 233 233 232 231 230 230 230 230 230 230 230 231 231 232 232 234 237 238 237 238 238 240 241 243 244 246 248 251 255 257 259 262 264 265 266 267 265 263 266 271 276 281 284 284 285 287 289 291 292 293 297 299 299
219 220 220 220 220 220 220 221 221 222 222 222 223 224 226 227 228 230 230 231 232 232 233 233 233 233 234 234 234 234 235 236 236 236 236 235 234 234 233 232 232 231 231 231 232 232 232 232 233 234 236 238 240 239 240 241 242 244 245 246 248 250 252 255 257 260 262 265 266 267 268 266 264 266 267 271 276 281 283 286 290 291 291 292 295 300 299 298
219 219 221 221 221 221 220 220 221 222 223 223 224 224 225 226 227 228 229 230 231 231 232 233 234 234 234 234 234 234 235 236 236 237 236 236 236 235 235 235 234 234 233 234 234 233 233 233 234 235 236 239 241 241 242 243 245 246 247 248 249 250 252 255 258 260 263 266 268 269 269 266 263 264 265 267 274 278 280 285 290 290 290 292 298 300 298 298
220 219 220 221 222 223 222 221 221 221 222 224 225 225 225 226 227 227 228 229 230 231 231 232 233 234 234 234 235 235 235 235 236 237 237 236 236 236 236 236 236 236 236 236 235 235 235 235 236 237 238 239 242 242 243 244 246 247 248 249 249 251 253 255 257 260 263 265 267 270 271 268 262 261 264 266 273 278 281 286 288 287 288 294 299 299 298 297
223 220 220 221 222 224 224 224 223 222 221 222 223 225 226 226 227 227 228 229 230 230 231 232 233 234 235 236 236 235 235 236 236 237 237 237 237 237 237 237 237 237 237 238 237 237 237 238 238 238 239 240 241 243 244 244 245 246 247 248 250 251 253 255 257 259 261 263 265 267 271 273 268 262 263 268 273 277 282 286 286 285 290 295 298 298 297 296
226 225 223 222 223 224 225 226 226 225 223 223 223 223 225 226 227 228 228 230 230 229 231 232 233 234 235 236 236 236 236 237 238 238 239 239 238 237 237 237 237 238 238 239 239 238 239 240 241 241 240 241 242 243 243 244 244 245 246 248 250 252 253 255 257 258 260 261 263 264 268 274 273 267 266 268 272 278 281 282 283 286 291 295 298 298 297 297
224 227 228 226 225 225 226 227 227 227 226 226 225 224 224 225 226 227 228 231 229 227 229 232 233 234 234 234 235 236 236 236 237 238 238 239 239 238 238 238 238 238 238 239 239 238 239 240 241 241 241 241 241 243 243 243 244 245 246 248 250 252 253 255 256 257 259 260 262 264 266 271 274 274 272 270 272 277 278 279 281 286 291 294 297 297 296 298
219 222 226 228 228 228 228 228 229 229 229 228 227 226 226 226 226 227 228 230 229 227 227 230 232 233 233 234 235 236 236 235 235 236 237 237 238 237 237 237 238 238 239 239 239 239 239 240 241 242 242 242 242 243 245 245 246 247 248 249 250 252 253 254 255 257 259 260 262 263 264 267 272 274 276 276 276 276 275 277 280 285 289 293 294 294 296 298
219 220 221 223 227 228 228 229 229 230 230 230 229 229 228 228 227 228 229 230 231 230 228 228 229 231 232 233 234 235 236 236 235 235 235 236 237 237 237 237 238 238 239 239 239 239 240 241 242 242 243 243 243 244 246 247 248 249 250 250 251 252 252 253 255 257 258 259 261 263 263 266 269 270 274 278 279 277 275 276 280 285 289 292 292 294 296 299
219 222 221 222 225 227 228 229 230 230 230 230 231 231 231 231 230 229 231 232 233 233 231 228 228 230 232 232 233 234 235 236 236 236 235 236 238 238 238 239 240 240 241 240 241 242 242 243 244 244 245 245 245 246 247 248 248 249 250 250 252 253 254 254 255 256 257 258 260 262 263 264 266 269 274 277 278 278 277 278 281 286 289 292 293 294 297 299
221 222 222 222 224 226 228 230 231 231 231 230 230 232 234 233 231 231 233 234 233 233 232 230 229 229 232 233 233 233 233 234 236 236 236 235 236 238 239 240 241 242 242 242 243 244 244 244 245 245 245 246 246 247 247 248 248 249 250 252 254 256 257 257 256 256 257 258 259 261 262 263 265 269 272 274 276 278 280 281 283 286 288 291 293 296 298 300
220 221 221 221 222 224 225 226 229 231 232 233 233 235 234 232 232 234 236 234 234 235 234 232 230 229 230 232 233 233 234 234 235 237 237 236 236 236 237 239 240 241 242 243 243 244 244 244 245 246 246 246 247 248 249 250 251 251 252 253 254 256 256 256 256 256 257 258 259 260 261 262 265 267 269 272 274 277 280 283 285 287 288 290 293 296 299 300
217 217 218 218 220 222 221 221 225 228 230 232 234 233 232 232 232 234 234 233 234 236 236 234 233 232 232 232 233 235 236 237 237 239 240 239 238 237 238 240 241 243 244 244 245 246 246 246 247 248 249 249 249 250 251 251 251 251 251 251 252 253 255 257 258 258 259 259 259 259 260 262 265 267 269 271 273 276 280 283 284 285 287 290 293 296 298 300
220 219 217 216 217 218 217 217 219 222 224 228 231 231 232 233 232 231 232 233 234 234 235 235 234 233 234 233 234 236 237 238 239 240 241 241 241 240 239 240 242 243 245 246 247 247 248 248 248 249 251 251 251 251 251 251 251 251 251 251 253 254 256 258 259 260 261 261 259 259 260 262 265 267 269 272 275 278 280 281 281 283 285 288 291 294 297 299
224 223 221 219 216 214 214 212 213 215 216 221 229 232 234 236 234 232 232 232 233 233 235 237 236 235 234 233 233 234 235 236 237 238 240 242 242 241 240 240 241 243 244 246 248 248 249 248 247 248 250 250 251 251 251 251 251 252 252 252 254 255 255 256 258 258 258 259 259 259 261 264 266 267 268 272 275 277 278 279 281 283 284 286 289 292 294 296
227 225 223 222 221 218 216 213 213 216 214 216 224 228 229 231 229 228 228 228 230 231 232 236 236 235 234 233 231 232 233 234 234 235 237 239 240 240 241 242 242 243 245 247 248 248 248 248 247 247 248 248 249 249 249 249 250 251 252 252 253 252 252 253 254 255 255 258 259 261 263 265 266 267 269 271 273 275 276 278 281 282 284 285 288 290 290 293
230 228 226 226 225 223 222 219 219 225 225 222 223 222 220 220 220 222 225 225 228 229 230 233 235 234 235 234 233 233 233 233 233 233 234 236 238 238 240 241 242 243 243 244 246 246 247 248 246 245 246 247 247 247 248 249 250 252 252 252 250 250 251 252 253 255 257 259 261 262 262 263 264 267 270 271 271 274 275 277 279 281 283 286 287 289 290 292
232 231 229 229 229 227 227 226 225 230 234 230 225 220 216 214 216 218 220 222 226 228 229 231 233 235 235 235 236 236 236 235 234 234 235 235 237 237 238 239 240 241 241 241 243 243 244 246 246 244 245 246 245 246 248 249 251 251 251 251 250 252 254 254 255 256 258 259 260 260 260 260 263 268 271 271 271 273 275 276 278 280 283 286 287 288 289 291
233 233 231 231 232 230 231 231 230 232 235 232 227 224 220 217 218 220 221 223 226 228 229 231 233 235 236 235 236 237 238 237 235 235 236 236 236 236 236 237 238 239 240 241 241 242 243 244 245 245 245 245 246 247 249 250 251 251 252 252 252 253 255 255 255 256 256 258 259 260 259 261 264 268 270 271 272 274 275 277 278 280 283 285 286 287 288 290
233 233 233 233 234 233 233 234 234 234 234 232 229 229 227 223 222 224 225 227 230 231 232 233 235 236 237 237 237 237 239 239 238 237 237 236 235 236 236 238 239 239 240 241 242 243 245 246 246 247 247 248 249 250 250 250 250 250 250 251 252 253 253 254 254 254 255 256 257 259 260 262 266 268 270 272 273 274 275 276 278 281 283 284 284 285 287 289
233 233 234 234 235 235 235 236 236 235 234 232 231 233 232 230 228 228 229 231 231 231 232 234 235 237 238 238 239 239 240 240 240 239 238 236 236 237 238 240 241 241 242 244 244 245 246 247 247 247 248 249 249 249 248 248 249 249 249 250 251 251 251 252 253 254 255 255 257 259 261 265 269 270 271 273 274 275 275 276 278 281 282 283 284 286 288 288
233 233 234 234 236 236 236 236 236 236 234 232 233 235 234 234 234 233 233 233 232 231 231 232 234 236 237 238 239 241 242 243 242 241 241 240 238 238 240 242 243 244 244 245 246 246 246 247 248 249 249 249 249 248 249 249 250 250 250 251 251 251 251 252 253 255 255 256 259 260 263 268 271 270 271 273 274 274 275 275 278 279 281 283 284 286 287 287
232 232 233 234 235 235 236 237 237 237 235 234 235 236 235 235 235 235 235 234 234 233 233 232 233 236 237 237 238 240 243 245 246 245 243 242 240 240 243 244 245 247 247 248 249 248 248 248 249 249 249 249 249 250 250 251 251 252 253 254 254 254 254 254 255 257 257 258 262 263 265 269 271 270 271 271 271 274 276 278 279 279 281 283 284 284 284 285
232 232 232 233 234 235 236 237 237 237 236 236 237 237 236 236 236 236 236 235 234 234 234 234 234 236 237 237 238 239 240 243 245 246 245 244 242 242 244 245 246 247 248 250 250 250 251 250 248 248 249 249 249 251 253 254 255 256 256 257 258 258 258 259 259 259 259 261 263 263 265 269 270 270 271 272 273 276 278 280 281 281 282 282 282 282 282 282
233 233 232 233 235 236 236 236 237 237 237 237 238 237 236 236 236 236 237 237 235 234 234 234 235 235 236 238 238 239 239 240 241 242 244 244 244 244 245 246 247 248 249 250 250 251 252 251 250 251 252 253 253 254 255 256 256 257 257 257 258 258 258 258 257 258 261 263 262 263 267 271 271 271 273 275 277 278 279 280 281 282 281 280 279 279 280 281
234 234 234 234 236 238 237 236 236 237 238 238 239 239 238 238 237 237 237 237 237 236 235 234 234 235 236 237 239 240 240 240 239 240 241 242 243 243 244 245 246 247 248 249 250 250 250 250 250 251 254 256 256 256 256 256 257 257 257 256 256 257 257 256 257 259 263 264 264 266 270 272 272 272 274 276 277 278 280 281 281 280 279 278 278 279 279 279
235 235 235 236 237 238 239 238 237 237 238 239 240 240 239 239 239 239 238 238 238 237 236 235 234 235 236 237 239 240 239 239 239 239 240 240 241 242 242 242 242 241 242 244 247 250 252 251 251 252 253 254 254 255 256 258 258 258 257 256 255 255 255 256 259 262 263 264 266 269 269 269 272 275 276 276 277 277 277 277 277 278 278 279 279 278 278 278
237 236 236 238 238 239 240 240 239 238 237 238 239 239 239 239 240 240 240 240 240 239 239 238 236 236 237 238 239 239 239 239 239 240 239 238 238 239 240 240 239 240 242 243 243 245 247 248 249 250 250 251 252 253 254 256 258 257 257 256 254 254 256 258 261 263 263 263 266 268 268 269 273 276 276 275 275 274 273 273 274 275 276 276 275 275 275 276
238 238 238 239 240 240 239 239 240 240 239 238 238 238 238 239 239 240 241 241 241 241 241 240 239 238 238 239 239 240 239 239 240 240 239 238 237 238 239 240 240 242 243 242 242 242 242 244 245 246 246 247 249 250 251 253 254 253 253 253 252 255 259 262 264 264 263 265 268 270 270 270 272 276 277 275 272 271 270 269 267 267 268 270 270 271 271 270
238 239 239 240 240 240 240 239 239 240 241 240 239 238 239 240 240 240 241 241 241 242 242 242 241 240 240 240 240 241 240 240 241 240 239 240 239 238 240 241 241 243 243 241 241 242 244 245 245 245 247 245 245 247 247 246 248 247 246 248 253 259 264 266 266 266 266 269 271 269 269 272 274 276 274 271 270 269 268 267 264 261 261 263 264 265 266 267
238 239 239 240 240 240 240 240 239 240 240 242 243 242 240 240 240 240 241 241 242 242 243 242 242 242 242 242 241 242 241 241 241 240 239 240 240 239 241 241 241 243 244 244 244 245 246 246 245 246 249 247 244 245 244 243 246 246 242 245 254 260 263 263 263 264 267 268 267 266 268 273 274 273 273 273 273 271 269 267 264 260 259 259 261 263 264 264
Height
5792 5795 5798 5801 5804 5807 5810 5812 5814 5817 5820 5822 5825 5827 5829 5831 5833 5835 5837 5838 5840 5842 5844 5846 5848 5850 5851 5853 5854 5855 5857 5858 5860 5861 5862 5864 5865 5866 5867 5868 5870 5871 5872 5874 5875 5876 5878 5879 5880 5882 5883 5884 5885 5886 5887 5888 5889 5890 5890 5891 5892 5893 5893 5893 5894 5893 5893 5893 5893 5893 5893 5893 5893 5893 5893 5892 5892 5892 5891 5890 5890 5889 5889 5888 5888 5888 5888 5888
5791 5794 5797 5799 5802 5805 5808 5810 5813 5815 5818 5820 5823 5825 5827 5830 5832 5834 5835 5837 5839 5841 5842 5844 5846 5848 5850 5851 5853 5854 5856 5857 5859 5860 5861 5862 5863 5865 5866 5867 5868 5870 5871 5872 5874 5875 5876 5877 5879 5880 5882 5883 5884 5885 5886 5887 5888 5889 5889 5890 5891 5892 5892 5893 5893 5893 5893 5893 5893 5892 5892 5892 5892 5892 5892 5892 5891 5891 5890 5890 5889 5888 5888 5888 5887 5887 5887 5887
5789 5792 5795 5797 5800 5803 5805 5808 5811 5813 5816 5818 5821 5823 5825 5828 5830 5832 5833 5835 5837 5839 5841 5843 5845 5847 5848 5850 5851 5853 5854 5856 5857 5859 5860 5861 5862 5863 5865 5866 5867 5868 5869 5871 5872 5874 5875 5876 5878 5879 5880 5881 5883 5884 5885 5886 5887 5888 5888 5889 5890 5891 5891 5892 5892 5892 5892 5892 5892 5892 5892 5892 5892 5892 5892 5891 5891 5890 5890 5889 5889 5888 5887 5887 5887 5887 5887 5886
5786 5789 5792 5795 5798 5801 5803 5806 5809 5811 5814 5816 5819 5821 5823 5826 5828 5830 5832 5834 5835 5837 5839 5841 5843 5845 5847 5848 5850 5851 5853 5854 5856 5857 5859 5860 5861 5862 5863 5864 5865 5867 5868 5869 5871 5872 5874 5875 5877 5878 5879 5880 5881 5883 5884 5885 5886 5887 5887 5888 5889 5890 5890 5891 5891 5891 5891 5891 5891 5891 5891 5891 5891 5891 5891 5891 5890 5890 5889 5889 5888 5887 5887 5886 5886 5886 5886 5886
5783 5786 5789 5792 5795 5798 5801 5804 5807 5809 5812 5814 5817 5819 5821 5824 5826 5828 5830 5832 5834 5836 5837 5839 5841 5843 5845 5847 5848 5850 5851 5853 5854 5856 5857 5858 5859 5861 5862 5863 5864 5865 5867 5868 5870 5871 5873 5874 5875 5877 5878 5879 5880 5882 5883 5884 5885 5886 5886 5887 5888 5889 5889 5890 5890 5890 5890 5890 5891 5890 5890 5890 5890 5890 5890 5890 5890 5889 5889 5888 5888 5887 5887 5886 5885 5885 5885 5885
5779 5782 5786 5789 5792 5795 5798 5801 5804 5807 5810 5812 5815 5817 5819 5822 5824 5826 5828 5830 5832 5834 5836 5837 5839 5841 5843 5845 5846 5848 5850 5851 5853 5854 5855 5857 5858 5859 5860 5861 5863 5864 5866 5867 5869 5870 5872 5873 5874 5875 5877 5878 5879 5881 5882 5883 5884 5885 5886 5886 5887 5888 5888 5889 5889 5889 5889 5890 5890 5890 5889 5889 5889 5890 5890 5890 5889 5889 5888 5888 5887 5886 5886 5886 5885 5885 5884 5884
5776 5780 5783 5786 5789 5793 5796 5799 5801 5804 5807 5810 5812 5815 5817 5819 5822 5824 5826 5828 5830 5832 5834 5836 5837 5839 5841 5843 5845 5846 5848 5850 5851 5853 5854 5855 5857 5858 5859 5860 5862 5863 5865 5866 5868 5869 5871 5872 5873 5874 5876 5877 5878 5879 5881 5882 5883 5884 5884 5885 5886 5886 5887 5887 5888 5888 5888 5888 5889 5889 5888 5888 5888 5889 5889 5889 5888 5888 5888 5887 5886 5886 5885 5885 5884 5884 5884 5883
5773 5777 5780 5783 5786 5789 5792 5795 5799 5802 5804 5807 5810 5812 5815 5817 5819 5822 5824 5826 5828 5830 5831 5833 5835 5837 5839 5841 5843 5844 5846 5848 5850 5851 5852 5854 5855 5856 5858 5859 5861 5862 5864 5865 5867 5868 5869 5871 5872 5873 5874 5875 5877 5878 5879 5880 5881 5882 5883 5884 5884 5885 5885 5886 5886 5887 5887 5887 5887 5887 5887 5887 5887 5888 5888 5888 5888 5887 5887 5886 5886 5885 5884 5884 5884 5883 5883 5883
5770 5773 5777 5780 5783 5786 5789 5792 5796 5799 5802 5805 5807 5810 5812 5815 5817 5819 5821 5823 5825 5827 5829 5831 5833 5835 5837 5839 5840 5842 5844 5846 5848 5849 5851 5852 5854 5855 5856 5858 5860 5861 5863 5864 5866 5867 5868 5869 5870 5872 5873 5874 5875 5877 5878 5879 5880 5881 5881 5882 5883 5883 5884 5884 5885 5885 5886 5886 5886 5886 5886 5886 5886 5887 5887 5887 5887 5886 5886 5885 5885 5884 5883 5883 5883 5882 5882 5882
5766 5770 5773 5776 5780 5783 5786 5790 5793 5796 5799 5801 5804 5807 5810 5812 5815 5817 5819 5821 5823 5825 5827 5829 5831 5833 5835 5836 5838 5840 5841 5844 5845 5847 5849 5850 5852 5853 5855 5857 5858 5860 5861 5863 5864 5866 5867 5868 5869 5870 5871 5873 5874 5875 5876 5877 5878 5879 5880 5881 5881 5882 5882 5883 5883 5884 5884 5884 5884 5884 5885 5884 5884 5886 5886 5886 5886 5885 5885 5884 5884 5883 5883 5882 5882 5881 5881 5880
5763 5766 5769 5773 5776 5780 5783 5787 5790 5793 5796 5798 5801 5804 5807 5809 5812 5815 5817 5819 5821 5823 5825 5827 5828 5830 5832 5834 5835 5837 5839 5841 5843 5845 5846 5848 5850 5852 5853 5855 5857 5858 5860 5861 5863 5864 5865 5866 5868 5869 5870 5871 5872 5873 5874 5876 5877 5877 5878 5879 5880 5880 5881 5881 5882 5882 5882 5882 5883 5883 5883 5883 5883 5884 5885 5884 5884 5884 5883 5883 5883 5882 5882 5881 5881 5880 5880 5879
5758 5762 5766 5769 5772 5776 5779 5783 5786 5790 5793 5796 5798 5801 5804 5807 5809 5812 5814 5816 5818 5820 5822 5824 5826 5828 5829 5831 5833 5835 5837 5839 5841 5843 5844 5846 5848 5850 5851 5853 5855 5857 5858 5860 5861 5862 5863 5865 5866 5867 5868 5869 5871 5872 5873 5874 5875 5876 5877 5877 5878 5879 5879 5880 5880 5880 5880 5881 5881 5881 5882 5881 5881 5882 5883 5883 5883 5883 5882 5882 5882 5881 5881 5880 5880 5879 5879 5878
5754 5758 5762 5765 5768 5772 5775 5779 5782 5786 5789 5792 5795 5798 5801 5804 5807 5809 5811 5813 5815 5817 5819 5821 5823 5825 5827 5828 5830 5832 5834 5836 5838 5840 5842 5844 5846 5848 5849 5851 5853 5855 5856 5858 5859 5860 5862 5863 5864 5865 5867 5868 5869 5870 5871 5872 5873 5874 5875 5876 5876 5877 5877 5878 5878 5878 5879 5879 5879 5880 5880 5879 5880 5881 5881 5882 5882 5881 5881 5881 5880 5880 5879 5879 5878 5878 5877 5877
5750 5754 5757 5761 5765 5768 5771 5775 5778 5781 5785 5788 5791 5795 5798 5801 5803 5806 5808 5810 5812 5814 5816 5818 5820 5822 5824 5825 5827 5830 5832 5834 5836 5838 5840 5842 5843 5845 5847 5849 5851 5853 5854 5856 5857 5858 5860 5861 5862 5864 5865 5866 5867 5868 5869 5870 5871 5872 5873 5874 5875 5875 5876 5876 5877 5877 5877 5877 5878 5879 5879 5878 5878 5880 5880 5880 5880 5880 5880 5879 5879 5878 5878 5878 5877 5877 5876 5876
5746 5750 5753 5757 5761 5764 5767 5771 5774 5777 5781 5784 5787 5790 5794 5797 5799 5802 5805 5807 5809 5811 5813 5815 5817 5819 5821 5823 5825 5827 5829 5831 5833 5835 5837 5839 5841 5843 5845 5847 5848 5850 5852 5853 5855 5856 5858 5859 5860 5862 5863 5864 5865 5866 5867 5868 5869 5870 5871 5872 5873 5873 5874 5874 5875 5875 5875 5876 5876 5877 5878 5877 5877 5878 5878 5879 5879 5879 5878 5878 5878 5877 5877 5876 5876 5875 5875 5874
5741 5745 5749 5753 5756 5760 5763 5767 5770 5773 5776 5780 5783 5786 5789 5792 5795 5798 5800 5803 5805 5807 5810 5812 5814 5816 5818 5820 5822 5824 5826 5828 5830 5832 5834 5836 5838 5840 5842 5844 5846 5848 5849 5851 5852 5854 5855 5857 5858 5859 5861 5862 5863 5864 5865 5866 5867 5868 5869 5870 5871 5872 5872 5872 5873 5873 5873 5874 5875 5876 5877 5876 5875 5876 5877 5877 5877 5877 5877 5876 5876 5876 5875 5875 5875 5874 5874 5873
5738 5741 5744 5748 5752 5756 5759 5762 5766 5769 5772 5776 5779 5782 5785 5787 5790 5793 5796 5798 5801 5803 5806 5807 5810 5813 5814 5817 5820 5821 5823 5825 5828 5830 5832 5834 5836 5838 5839 5841 5843 5845 5846 5848 5850 5851 5853 5854 5855 5857 5858 5860 5861 5862 5863 5864 5865 5866 5868 5869 5869 5870 5870 5870 5870 5871 5871 5872 5873 5874 5875 5875 5874 5874 5875 5875 5876 5876 5875 5875 5874 5874 5874 5874 5873 5873 5872 5871
5734 5737 5740 5743 5747 5751 5754 5758 5761 5765 5768 5771 5774 5777 5780 5783 5786 5789 5791 5794 5796 5799 5801 5803 5806 5809 5811 5814 5816 5818 5820 5823 5825 5827 5829 5831 5833 5835 5837 5838 5840 5842 5844 5845 5847 5849 5850 5851 5853 5854 5856 5858 5859 5859 5860 5861 5863 5864 5866 5867 5867 5867 5868 5868 5868 5869 5869 5870 5871 5872 5873 5874 5873 5873 5873 5873 5874 5874 5874 5873 5873 5872 5872 5872 5872 5871 5870 5870
5731 5734 5736 5739 5743 5746 5750 5753 5757 5760 5763 5767 5770 5773 5776 5779 5781 5784 5787 5789 5792 5794 5797 5800 5803 5805 5808 5811 5813 5815 5818 5820 5822 5824 5826 5828 5830 5832 5834 5835 5837 5839 5841 5842 5844 5846 5847 5849 5850 5852 5854 5855 5854 5855 5857 5859 5861 5863 5863 5864 5864 5865 5866 5865 5865 5866 5867 5868 5869 5870 5871 5872 5871 5871 5870 5871 5872 5873 5872 5871 5871 5870 5870 5869 5869 5869 5868 5868
5728 5731 5733 5736 5739 5742 5745 5748 5752 5755 5758 5761 5765 5768 5771 5774 5777 5779 5782 5785 5787 5790 5793 5796 5799 5802 5805 5807 5809 5812 5814 5816 5818 5820 5823 5825 5827 5829 5831 5832 5834 5836 5838 5839 5841 5843 5845 5846 5847 5849 5851 5850 5850 5853 5855 5857 5859 5859 5860 5861 5862 5863 5863 5863 5863 5864 5864 5865 5866 5867 5868 5870 5870 5868 5867 5868 5870 5871 5870 5870 5869 5868 5867 5867 5866 5866 5866 5865
5725 5727 5730 5733 5735 5738 5741 5744 5747 5750 5753 5757 5760 5763 5766 5769 5772 5774 5778 5780 5782 5786 5789 5791 5794 5797 5800 5803 5805 5808 5810 5813 5815 5817 5819 5822 5824 5825 5827 5829 5831 5833 5834 5836 5838 5840 5841 5843 5844 5846 5846 5847 5848 5851 5853 5855 5856 5856 5858 5858 5859 5860 5860 5860 5860 5861 5861 5862 5864 5864 5864 5867 5868 5866 5866 5866 5866 5868 5868 5867 5866 5865 5865 5864 5863 5863 5863 5862
5721 5724 5727 5729 5732 5734 5737 5740 5743 5746 5749 5752 5755 5759 5761 5764 5767 5770 5773 5775 5778 5781 5784 5787 5790 5793 5796 5799 5802 5805 5807 5809 5811 5813 5816 5818 5820 5822 5824 5826 5827 5829 5831 5833 5834 5836 5838 5840 5841 5842 5843 5844 5846 5849 5850 5851 5852 5854 5855 5856 5857 5858 5858 5857 5857 5858 5858 5858 5861 5861 5860 5863 5865 5864 5865 5864 5864 5865 5864 5864 5864 5863 5862 5861 5860 5860 5860 5859
5716 5720 5723 5726 5728 5730 5733 5736 5739 5742 5745 5747 5751 5754 5756 5759 5762 5765 5768 5770 5773 5776 5779 5782 5785 5789 5792 5795 5797 5801 5803 5805 5807 5809 5812 5814 5816 5818 5820 5822 5823 5825 5827 5829 5831 5832 5834 5836 5837 5839 5840 5841 5843 5845 5847 5848 5850 5851 5852 5853 5854 5854 5854 5854 5854 5855 5855 5855 5857 5858 5856 5859 5862 5862 5863 5862 5861 5862 5862 5861 5861 5860 5859 5858 5858 5858 5857 5856
5711 5715 5718 5722 5724 5726 5729 5732 5735 5738 5741 5744 5747 5749 5752 5755 5758 5760 5763 5765 5767 5771 5775 5778 5781 5784 5787 5790 5793 5796 5798 5800 5803 5805 5807 5809 5811 5814 5816 5817 5819 5822 5823 5825 5827 5829 5830 5832 5834 5835 5837 5838 5840 5842 5844 5845 5846 5847 5848 5849 5850 5850 5850 5851 5852 5852 5852 5853 5854 5854 5852 5854 5859 5859 5860 5861 5859 5860 5859 5858 5858 5857 5856 5856 5856 5855 5854 5853
5706 5710 5714 5717 5720 5722 5725 5728 5731 5734 5737 5740 5743 5745 5748 5751 5753 5755 5757 5759 5762 5766 5770 5773 5777 5779 5783 5786 5789 5792 5794 5796 5798 5800 5802 5804 5806 5809 5811 5813 5816 5818 5819 5821 5822 5824 5827 5829 5830 5832 5834 5835 5836 5838 5840 5841 5842 5843 5845 5845 5845 5846 5847 5848 5849 5849 5849 5850 5850 5851 5847 5847 5854 5857 5857 5858 5857 5857 5856 5855 5855 5853 5852 5853 5853 5852 5851 5850
5701 5705 5709 5712 5715 5718 5721 5724 5726 5729 5733 5735 5738 5741 5743 5746 5748 5750 5752 5753 5756 5762 5765 5769 5772 5775 5779 5783 5785 5787 5789 5791 5794 5795 5798 5800 5802 5804 5806 5809 5811 5813 5814 5816 5818 5820 5823 5825 5826 5828 5830 5832 5833 5834 5836 5837 5838 5839 5840 5840 5840 5842 5843 5844 5845 5845 5846 5846 5847 5848 5843 5840 5846 5853 5856 5855 5855 5854 5853 5852 5851 5850 5849 5850 5850 5849 5847 5847
5698 5701 5704 5707 5710 5713 5716 5719 5722 5726 5729 5731 5734 5736 5739 5742 5743 5745 5748 5747 5750 5758 5762 5764 5768 5772 5776 5778 5780 5782 5784 5788 5791 5791 5793 5795 5797 5800 5801 5804 5807 5808 5809 5811 5813 5817 5820 5821 5822 5824 5826 5828 5829 5830 5831 5831 5832 5834 5835 5835 5836 5838 5839 5840 5841 5841 5842 5843 5843 5845 5843 5837 5836 5846 5853 5852 5851 5852 5851 5849 5847 5846 5846 5846 5846 5845 5844 5843
5694 5697 5699 5702 5705 5708 5711 5715 5718 5722 5724 5727 5730 5732 5734 5736 5737 5741 5742 5739 5746 5755 5757 5759 5764 5768 5771 5772 5774 5776 5780 5785 5785 5785 5789 5790 5792 5794 5796 5799 5801 5802 5803 5806 5809 5812 5814 5815 5816 5819 5821 5823 5825 5825 5825 5826 5827 5829 5830 5831 5832 5834 5834 5835 5836 5837 5837 5839 5840 5841 5841 5836 5831 5838 5848 5849 5848 5849 5848 5846 5844 5843 5843 5843 5842 5841 5840 5839
5689 5691 5695 5697 5699 5703 5707 5710 5714 5717 5719 5723 5725 5726 5729 5730 5732 5735 5734 5734 5744 5752 5753 5756 5760 5762 5765 5767 5769 5771 5775 5778 5778 5780 5783 5783 5785 5788 5790 5793 5794 5795 5798 5801 5804 5807 5808 5810 5811 5813 5816 5818 5820 5820 5820 5821 5822 5824 5826 5827 5828 5828 5829 5830 5830 5832 5833 5834 5836 5836 5837 5835 5830 5831 5840 5843 5844 5845 5844 5843 5842 5840 5840 5840 5839 5838 5837 5836
5682 5686 5690 5691 5693 5698 5702 5705 5709 5711 5715 5717 5719 5722 5724 5725 5727 5727 5725 5732 5744 5747 5749 5753 5754 5756 5760 5762 5764 5766 5769 5771 5773 5775 5776 5777 5780 5783 5785 5787 5788 5790 5793 5796 5799 5801 5803 5805 5806 5808 5811 5813 5815 5815 5816 5817 5818 5820 5821 5821 5822 5822 5823 5824 5826 5828 5828 5829 5831 5831 5832 5833 5830 5829 5834 5838 5839 5840 5840 5839 5839 5837 5836 5836 5835 5834 5833 5832
5677 5681 5684 5686 5689 5693 5696 5699 5703 5706 5709 5712 5714 5717 5718 5720 5721 5718 5721 5734 5742 5741 5743 5747 5750 5753 5755 5756 5759 5761 5763 5765 5767 5769 5771 5773 5775 5777 5780 5782 5784 5786 5788 5791 5794 5796 5799 5800 5801 5804 5806 5808 5810 5811 5811 5812 5813 5815 5815 5816 5816 5816 5818 5819 5821 5822 5821 5823 5826 5827 5827 5828 5828 5828 5830 5833 5834 5833 5834 5835 5835 5834 5832 5831 5830 5829 5829 5827
5672 5675 5678 5682 5685 5688 5692 5696 5698 5700 5703 5707 5710 5711 5713 5713 5710 5711 5723 5734 5733 5732 5737 5742 5746 5750 5750 5751 5753 5755 5757 5759 5761 5763 5765 5768 5769 5772 5775 5776 5779 5781 5783 5788 5790 5791 5793 5795 5797 5799 5800 5803 5804 5804 5805 5806 5808 5809 5810 5811 5811 5812 5813 5814 5815 5815 5815 5818 5821 5821 5821 5821 5824 5826 5827 5828 5828 5828 5829 5830 5831 5830 5828 5826 5824 5823 5823 5822
5666 5669 5673 5676 5679 5683 5688 5691 5693 5694 5699 5703 5704 5705 5706 5703 5702 5711 5723 5726 5724 5726 5733 5738 5741 5743 5743 5745 5747 5750 5752 5753 5755 5757 5759 5762 5763 5767 5769 5771 5774 5775 5779 5783 5783 5784 5787 5788 5790 5793 5795 5797 5798 5799 5800 5801 5803 5804 5805 5807 5806 5807 5807 5807 5808 5808 5809 5813 5814 5815 5815 5815 5819 5822 5822 5824 5824 5824 5825 5826 5826 5825 5824 5822 5819 5817 5817 5816
5659 5663 5666 5670 5673 5677 5681 5684 5687 5690 5694 5697 5696 5697 5696 5696 5702 5713 5717 5717 5719 5723 5727 5731 5734 5736 5737 5740 5743 5745 5747 5749 5751 5752 5754 5756 5759 5762 5765 5768 5770 5772 5775 5777 5777 5779 5781 5783 5787 5789 5789 5792 5793 5794 5796 5797 5797 5797 5799 5799 5799 5801 5801 5801 5802 5802 5804 5806 5807 5808 5808 5810 5815 5818 5818 5819 5820 5821 5822 5823 5822 5820 5819 5818 5816 5813 5811 5809
5652 5656 5660 5664 5667 5670 5675 5678 5681 5685 5688 5690 5689 5687 5687 5693 5703 5709 5710 5713 5717 5719 5720 5722 5726 5729 5731 5735 5738 5740 5741 5744 5746 5748 5748 5751 5754 5758 5762 5764 5766 5768 5770 5771 5772 5775 5775 5777 5783 5783 5783 5786 5787 5788 5790 5790 5789 5790 5793 5792 5793 5797 5797 5795 5795 5797 5798 5797 5798 5801 5801 5805 5811 5812 5813 5814 5816 5817 5817 5817 5817 5816 5815 5814 5812 5811 5808 5804
5646 5650 5654 5657 5661 5665 5668 5671 5674 5678 5680 5682 5680 5679 5684 5693 5700 5703 5706 5710 5712 5714 5715 5715 5719 5723 5725 5729 5732 5733 5735 5738 5741 5742 5743 5746 5749 5753 5757 5760 5762 5763 5765 5766 5767 5768 5769 5771 5775 5776 5777 5779 5780 5781 5782 5783 5783 5784 5786 5786 5789 5792 5791 5789 5788 5791 5791 5787 5790 5795 5796 5801 5806 5805 5809 5812 5811 5813 5812 5810 5811 5810 5810 5810 5809 5809 5806 5802
5639 5644 5648 5651 5654 5657 5659 5662 5666 5668 5671 5672 5671 5674 5682 5688 5693 5697 5700 5703 5705 5708 5709 5708 5712 5716 5719 5722 5725 5727 5729 5731 5733 5735 5738 5740 5743 5748 5753 5755 5757 5759 5761 5761 5760 5761 5762 5764 5768 5769 5769 5771 5772 5773 5774 5775 5777 5778 5779 5782 5785 5783 5782 5783 5781 5782 5783 5780 5783 5789 5790 5795 5798 5797 5804 5809 5807 5807 5806 5804 5804 5804 5803 5804 5805 5805 5802 5800
5632 5637 5641 5645 5647 5649 5652 5654 5657 5659 5661 5661 5663 5668 5675 5681 5687 5691 5693 5696 5699 5701 5702 5702 5705 5709 5712 5715 5718 5721 5722 5724 5727 5729 5732 5734 5737 5745 5749 5750 5752 5754 5755 5754 5752 5754 5756 5756 5760 5762 5762 5764 5766 5766 5767 5769 5770 5771 5773 5776 5777 5774 5775 5778 5774 5774 5777 5774 5775 5782 5784 5787 5790 5792 5798 5803 5802 5802 5800 5799 5798 5797 5797 5797 5799 5798 5797 5796
5625 5629 5634 5637 5639 5642 5644 5646 5649 5650 5649 5651 5657 5664 5671 5677 5681 5683 5686 5690 5692 5693 5695 5697 5700 5702 5705 5708 5712 5714 5715 5718 5722 5724 5726 5729 5733 5740 5744 5744 5746 5747 5747 5747 5745 5747 5749 5749 5751 5755 5756 5757 5757 5759 5761 5764 5765 5764 5766 5768 5769 5769 5770 5771 5769 5769 5771 5768 5768 5773 5775 5778 5785 5791 5793 5795 5796 5795 5793 5793 5792 5791 5791 5792 5791 5791 5790 5790
5619 5622 5626 5630 5632 5634 5636 5638 5640 5640 5640 5647 5656 5662 5667 5672 5674 5676 5680 5682 5683 5686 5689 5692 5695 5696 5698 5702 5705 5707 5709 5712 5715 5718 5720 5724 5729 5735 5737 5737 5739 5740 5740 5739 5739 5741 5742 5742 5744 5747 5748 5748 5750 5755 5758 5760 5760 5759 5761 5762 5764 5765 5765 5763 5763 5763 5764 5762 5761 5762 5764 5771 5784 5789 5787 5786 5789 5789 5787 5786 5786 5785 5786 5786 5784 5783 5783 5783
5612 5615 5619 5623 5624 5626 5629 5629 5631 5632 5636 5644 5651 5656 5661 5665 5668 5670 5673 5674 5677 5680 5683 5686 5689 5690 5692 5695 5698 5701 5703 5705 5709 5711 5714 5719 5724 5728 5730 5731 5732 5734 5733 5732 5733 5735 5736 5737 5738 5740 5741 5743 5748 5752 5753 5753 5753 5753 5754 5756 5758 5759 5758 5755 5753 5755 5757 5755 5754 5755 5754 5765 5781 5785 5782 5781 5781 5782 5781 5779 5779 5780 5780 5780 5777 5776 5776 5776
5605 5608 5613 5616 5616 5619 5620 5621 5623 5627 5632 5640 5647 5650 5652 5656 5661 5664 5666 5668 5671 5674 5678 5680 5682 5684 5686 5689 5692 5695 5696 5698 5701 5704 5708 5714 5720 5722 5723 5724 5725 5727 5727 5727 5728 5731 5731 5730 5731 5732 5736 5739 5742 5743 5744 5744 5745 5745 5746 5749 5751 5750 5749 5747 5745 5748 5751 5747 5749 5750 5746 5758 5777 5779 5776 5775 5773 5773 5773 5773 5774 5774 5773 5773 5770 5768 5768 5768
5598 5602 5605 5607 5608 5610 5610 5611 5616 5620 5627 5637 5641 5639 5641 5648 5653 5656 5659 5662 5666 5669 5673 5674 5677 5679 5681 5684 5686 5687 5689 5692 5694 5698 5704 5709 5714 5716 5716 5717 5718 5720 5720 5721 5723 5724 5723 5722 5724 5727 5730 5732 5733 5735 5736 5737 5737 5737 5739 5742 5743 5742 5743 5741 5739 5742 5742 5740 5746 5745 5739 5752 5771 5772 5770 5770 5766 5763 5764 5767 5769 5767 5766 5765 5763 5762 5760 5759
5591 5594 5597 5598 5600 5601 5601 5604 5611 5616 5624 5632 5630 5628 5636 5642 5644 5647 5652 5656 5660 5663 5666 5668 5671 5673 5675 5678 5679 5680 5683 5685 5688 5693 5698 5702 5707 5710 5710 5711 5712 5712 5714 5715 5716 5716 5715 5716 5718 5720 5721 5723 5725 5727 5728 5730 5730 5730 5733 5736 5737 5738 5738 5736 5735 5736 5733 5736 5743 5738 5732 5747 5763 5764 5763 5763 5758 5756 5756 5759 5760 5759 5759 5758 5756 5754 5753 5751
5584 5586 5588 5591 5591 5592 5594 5600 5606 5611 5618 5621 5619 5623 5631 5633 5635 5641 5646 5648 5651 5654 5658 5662 5666 5667 5668 5670 5672 5674 5677 5680 5683 5686 5690 5695 5700 5703 5703 5704 5705 5707 5708 5708 5707 5708 5708 5709 5710 5711 5711 5714 5718 5721 5723 5725 5725 5725 5729 5732 5733 5734 5732 5730 5731 5728 5725 5733 5737 5729 5728 5742 5754 5755 5755 5754 5753 5752 5751 5750 5750 5750 5751 5750 5747 5745 5745 5745
5576 5578 5581 5584 5584 5584 5588 5595 5600 5603 5609 5611 5611 5616 5622 5624 5628 5634 5636 5638 5642 5647 5652 5656 5658 5658 5659 5662 5664 5668 5672 5676 5678 5679 5683 5688 5692 5694 5695 5696 5697 5700 5701 5700 5700 5701 5700 5701 5703 5705 5705 5709 5715 5718 5717 5718 5718 5719 5723 5726 5725 5725 5724 5723 5721 5718 5722 5728 5725 5723 5728 5736 5743 5748 5748 5748 5748 5747 5744 5742 5742 5742 5741 5740 5738 5737 5737 5737
5568 5571 5576 5578 5578 5577 5581 5587 5593 5597 5602 5603 5603 5609 5616 5619 5622 5625 5626 5630 5635 5640 5644 5646 5647 5649 5652 5657 5660 5662 5666 5669 5670 5673 5678 5682 5685 5687 5688 5689 5690 5693 5693 5693 5693 5693 5692 5694 5699 5700 5701 5705 5710 5711 5708 5708 5710 5712 5714 5716 5717 5716 5715 5713 5710 5714 5721 5718 5712 5721 5730 5726 5730 5742 5744 5742 5742 5740 5738 5736 5733 5732 5730 5729 5730 5730 5729 5729
5561 5566 5570 5570 5569 5571 5575 5581 5588 5593 5595 5594 5595 5602 5608 5611 5614 5616 5619 5624 5629 5632 5634 5635 5638 5643 5647 5651 5653 5655 5658 5660 5661 5666 5673 5677 5680 5681 5681 5682 5684 5686 5688 5686 5686 5687 5686 5687 5693 5695 5695 5698 5702 5702 5700 5700 5702 5704 5705 5706 5708 5707 5706 5705 5706 5712 5716 5707 5704 5718 5724 5715 5721 5734 5737 5736 5735 5733 5732 5729 5725 5723 5722 5722 5722 5721 5721 5721
5554 5559 5562 5561 5563 5567 5571 5576 5580 5583 5585 5586 5589 5594 5598 5602 5607 5611 5614 5617 5619 5622 5624 5627 5634 5640 5643 5644 5645 5645 5648 5650 5653 5660 5667 5671 5673 5673 5674 5676 5678 5680 5681 5680 5680 5681 5678 5680 5686 5687 5685 5689 5694 5695 5695 5694 5694 5695 5696 5697 5698 5698 5698 5700 5703 5707 5707 5699 5699 5710 5712 5709 5716 5725 5728 5729 5727 5724 5723 5722 5721 5718 5715 5714 5713 5713 5713 5713
5547 5552 5554 5554 5556 5561 5565 5568 5571 5572 5575 5578 5580 5586 5591 5596 5600 5604 5606 5607 5610 5614 5617 5621 5629 5634 5635 5635 5635 5635 5640 5645 5648 5654 5660 5662 5663 5664 5665 5668 5671 5671 5671 5671 5671 5671 5671 5674 5680 5678 5675 5678 5685 5689 5689 5688 5686 5686 5687 5687 5689 5691 5693 5695 5697 5699 5697 5693 5696 5702 5700 5702 5713 5719 5719 5720 5718 5715 5714 5714 5714 5712 5708 5706 5705 5705 5706 5705
5539 5543 5544 5544 5548 5552 5556 5560 5563 5564 5566 5569 5574 5582 5587 5590 5594 5597 5596 5598 5602 5606 5609 5614 5622 5624 5624 5625 5627 5629 5635 5640 5641 5647 5651 5650 5652 5655 5655 5657 5660 5660 5660 5662 5662 5663 5665 5667 5671 5670 5664 5668 5679 5682 5681 5681 5677 5674 5676 5681 5685 5688 5689 5689 5690 5691 5691 5690 5692 5692 5689 5695 5709 5712 5709 5709 5709 5706 5706 5706 5704 5704 5702 5699 5697 5698 5698 5697
5530 5532 5533 5536 5539 5542 5546 5551 5554 5555 5559 5564 5570 5577 5580 5582 5586 5587 5586 5590 5596 5599 5602 5607 5612 5613 5613 5616 5619 5623 5628 5630 5632 5637 5639 5639 5642 5646 5644 5646 5651 5651 5651 5653 5654 5656 5658 5658 5661 5660 5655 5661 5673 5673 5671 5671 5662 5658 5670 5682 5685 5686 5684 5682 5682 5685 5688 5686 5683 5682 5683 5690 5701 5702 5699 5701 5701 5699 5699 5698 5696 5695 5695 5692 5691 5691 5690 5689